sat.trackr.live / text

‹ back to catalog

STARLINK-37373

NORAD 68848 · 2026-094K

PAYLOAD ACTIVE UNKNOWN

§ Identity

Operator
Country
US
Launch date
2026-04-26
Launch site
AFWTR
Launch vehicle
Mass (kg)
RCS (m²)

Purposes: comms

External: N2YO · Heavens-Above · Gunter

§ Orbital elements

Epoch: 2026-05-25T04:00:03.998880Z

Period
92.95 min
Inclination
97.2852°
Eccentricity
0.0000795
Mean motion
15.49166500 rev/d
Perigee alt
418.6 km
Apogee alt
419.7 km
Semi-major
6,797.3 km
B*
1.3703e-5
RAAN
159.8424°
Arg perigee
100.8465°
Mean anomaly
278.3731°
Rev number
560

§ Raw data

STARLINK-373731 68848U 26094K   26145.16671295  .00000654  00000+0  13703-4 0  99922 68848  97.2852 159.8424 0000795 100.8465 278.3731 15.49166500  5606

JSON: /api/v1/satellites/68848 · /tle

For live sub-satellite position, see the globe view (requires WebGL).

§ Visibility from observer

Set your observer location to see the next 7 days of passes ≥ 10°. The values pass through the URL so the page stays shareable.

No JS? Fill the form by hand. The geolocation button needs JavaScript.